TimeEDT,TemperatureF,Dew PointF,Humidity,Sea Level PressureIn,VisibilityMPH,Wind Direction,Wind SpeedMPH,Gust SpeedMPH,PrecipitationIn,Events,Conditions,WindDirDegrees,DateUTC
12:15 AM,60.8,55.4,82,30.16,10.0,Calm,Calm,-,N/A,,Clear,0,2011-10-11 04:15:00
12:35 AM,59.0,55.4,88,30.15,10.0,Calm,Calm,-,N/A,,Clear,0,2011-10-11 04:35:00
12:55 AM,60.8,55.4,82,30.15,10.0,Calm,Calm,-,N/A,,Clear,0,2011-10-11 04:55:00
1:35 AM,60.8,55.4,82,30.14,10.0,Calm,Calm,-,N/A,,Clear,0,2011-10-11 05:35:00
1:55 AM,60.8,55.4,82,30.14,10.0,Calm,Calm,-,N/A,,Clear,0,2011-10-11 05:55:00
2:15 AM,60.8,55.4,82,30.13,10.0,Calm,Calm,-,N/A,,Clear,0,2011-10-11 06:15:00
2:35 AM,60.8,55.4,82,30.13,10.0,Calm,Calm,-,N/A,,Clear,0,2011-10-11 06:35:00
2:55 AM,60.8,55.4,82,30.13,10.0,Calm,Calm,-,N/A,,Clear,0,2011-10-11 06:55:00
3:15 AM,60.8,57.2,88,30.12,10.0,Calm,Calm,-,N/A,,Clear,0,2011-10-11 07:15:00
3:35 AM,60.8,57.2,88,30.12,10.0,Calm,Calm,-,N/A,,Clear,0,2011-10-11 07:35:00
3:55 AM,60.8,57.2,88,30.12,10.0,Calm,Calm,-,N/A,,Clear,0,2011-10-11 07:55:00
4:15 AM,60.8,57.2,88,30.12,10.0,Calm,Calm,-,N/A,,Clear,0,2011-10-11 08:15:00
4:35 AM,60.8,57.2,88,30.12,10.0,Calm,Calm,-,N/A,,Clear,0,2011-10-11 08:35:00
4:55 AM,60.8,57.2,88,30.12,8.0,Calm,Calm,-,N/A,,Clear,0,2011-10-11 08:55:00
5:15 AM,60.8,55.4,82,30.12,10.0,Calm,Calm,-,N/A,,Clear,0,2011-10-11 09:15:00
5:35 AM,59.0,55.4,88,30.12,8.0,Calm,Calm,-,N/A,,Clear,0,2011-10-11 09:35:00
6:15 AM,59.0,55.4,88,30.12,8.0,Calm,Calm,-,N/A,,Clear,0,2011-10-11 10:15:00
6:35 AM,59.0,55.4,88,30.12,10.0,Calm,Calm,-,N/A,,Clear,0,2011-10-11 10:35:00
6:55 AM,59.0,55.4,88,30.13,6.0,Calm,Calm,-,N/A,,Clear,0,2011-10-11 10:55:00
7:15 AM,57.2,55.4,94,30.13,4.0,Calm,Calm,-,N/A,,Clear,0,2011-10-11 11:15:00
7:35 AM,57.2,55.4,94,30.14,7.0,Calm,Calm,-,N/A,,Clear,0,2011-10-11 11:35:00
7:55 AM,59.0,55.4,88,30.14,9.0,NNE,3.5,-,N/A,,Clear,30,2011-10-11 11:55:00
8:15 AM,60.8,55.4,82,30.15,10.0,NE,3.5,-,N/A,,Clear,50,2011-10-11 12:15:00
8:35 AM,64.4,57.2,77,30.15,10.0,NE,6.9,-,N/A,,Clear,40,2011-10-11 12:35:00
9:15 AM,68.0,60.8,78,30.15,10.0,ENE,6.9,-,N/A,,Clear,60,2011-10-11 13:15:00
9:35 AM,69.8,62.6,78,30.16,10.0,East,9.2,-,N/A,,Clear,80,2011-10-11 13:35:00
9:55 AM,71.6,60.8,69,30.15,10.0,ENE,11.5,16.1,N/A,,Clear,70,2011-10-11 13:55:00
10:15 AM,69.8,60.8,73,30.16,10.0,ENE,9.2,-,N/A,,Clear,70,2011-10-11 14:15:00
10:55 AM,69.8,60.8,73,30.16,10.0,ENE,10.4,16.1,N/A,,Clear,70,2011-10-11 14:55:00
11:15 AM,71.6,62.6,73,30.16,10.0,ENE,11.5,16.1,N/A,,Clear,60,2011-10-11 15:15:00
11:35 AM,71.6,62.6,73,30.16,10.0,ENE,10.4,20.7,N/A,,Clear,60,2011-10-11 15:35:00
11:55 AM,71.6,60.8,69,30.16,10.0,ENE,12.7,19.6,N/A,,Clear,70,2011-10-11 15:55:00
12:15 PM,69.8,60.8,73,30.16,10.0,ENE,11.5,17.3,N/A,,Clear,70,2011-10-11 16:15:00
12:35 PM,71.6,60.8,69,30.15,10.0,ENE,10.4,16.1,N/A,,Clear,60,2011-10-11 16:35:00
12:55 PM,69.8,60.8,73,30.15,10.0,ENE,12.7,18.4,N/A,,Clear,60,2011-10-11 16:55:00
1:15 PM,69.8,60.8,73,30.15,10.0,NE,12.7,-,N/A,,Clear,50,2011-10-11 17:15:00
1:35 PM,68.0,60.8,78,30.14,10.0,ENE,8.1,17.3,N/A,,Clear,60,2011-10-11 17:35:00
1:55 PM,68.0,60.8,78,30.14,10.0,ENE,10.4,-,N/A,,Clear,60,2011-10-11 17:55:00
2:15 PM,66.2,60.8,83,30.14,10.0,ENE,9.2,-,N/A,,Clear,70,2011-10-11 18:15:00
2:35 PM,66.2,59.0,78,30.13,10.0,NE,9.2,-,N/A,,Clear,50,2011-10-11 18:35:00
2:55 PM,66.2,60.8,83,30.13,10.0,NE,9.2,-,N/A,,Clear,50,2011-10-11 18:55:00
3:15 PM,66.2,59.0,78,30.13,10.0,ENE,10.4,17.3,N/A,,Clear,60,2011-10-11 19:15:00
3:35 PM,66.2,59.0,78,30.13,10.0,NE,9.2,-,N/A,,Clear,50,2011-10-11 19:35:00
4:15 PM,66.2,59.0,78,30.12,10.0,ENE,10.4,20.7,N/A,,Clear,60,2011-10-11 20:15:00
4:35 PM,66.2,59.0,78,30.12,10.0,ENE,11.5,-,N/A,,Clear,70,2011-10-11 20:35:00
4:55 PM,66.2,59.0,78,30.12,10.0,NE,10.4,-,N/A,,Clear,50,2011-10-11 20:55:00
5:15 PM,66.2,59.0,78,30.12,10.0,ENE,10.4,17.3,N/A,,Clear,60,2011-10-11 21:15:00
5:35 PM,64.4,59.0,83,30.11,10.0,ENE,10.4,17.3,N/A,,Clear,60,2011-10-11 21:35:00
5:55 PM,64.4,59.0,83,30.11,10.0,NE,9.2,-,N/A,,Clear,50,2011-10-11 21:55:00
6:15 PM,64.4,59.0,83,30.10,10.0,NE,9.2,-,N/A,,Partly Cloudy,40,2011-10-11 22:15:00
6:55 PM,64.4,59.0,83,30.10,10.0,NE,10.4,17.3,N/A,,Overcast,50,2011-10-11 22:55:00
7:35 PM,64.4,59.0,83,30.10,10.0,NE,10.4,-,N/A,,Overcast,40,2011-10-11 23:35:00
7:55 PM,64.4,59.0,83,30.09,10.0,NE,12.7,19.6,N/A,,Overcast,40,2011-10-11 23:55:00
8:15 PM,64.4,60.8,88,30.09,10.0,NE,10.4,17.3,N/A,,Overcast,50,2011-10-12 00:15:00
8:35 PM,64.4,59.0,83,30.09,10.0,ENE,12.7,-,N/A,,Mostly Cloudy,60,2011-10-12 00:35:00
8:55 PM,64.4,59.0,83,30.09,10.0,ENE,11.5,19.6,N/A,,Overcast,60,2011-10-12 00:55:00
9:15 PM,64.4,60.8,88,30.09,10.0,ENE,12.7,19.6,N/A,,Overcast,60,2011-10-12 01:15:00
9:35 PM,64.4,60.8,88,30.09,10.0,ENE,12.7,18.4,N/A,,Overcast,60,2011-10-12 01:35:00
9:55 PM,66.2,60.8,83,30.09,10.0,ENE,12.7,18.4,N/A,,Overcast,60,2011-10-12 01:55:00
10:15 PM,66.2,60.8,83,30.09,10.0,ENE,12.7,20.7,N/A,,Overcast,70,2011-10-12 02:15:00
10:35 PM,66.2,60.8,83,30.09,10.0,ENE,11.5,18.4,N/A,,Overcast,70,2011-10-12 02:35:00
10:55 PM,66.2,60.8,83,30.10,10.0,East,11.5,16.1,N/A,,Overcast,80,2011-10-12 02:55:00
11:15 PM,66.2,60.8,83,30.11,10.0,East,11.5,18.4,N/A,,Overcast,80,2011-10-12 03:15:00
11:35 PM,66.2,60.8,83,30.11,10.0,East,10.4,-,N/A,,Overcast,80,2011-10-12 03:35:00
11:55 PM,66.2,60.8,83,30.10,10.0,ENE,10.4,18.4,N/A,,Overcast,70,2011-10-12 03:55:00